Wenatchee, WA

5:51 AM PST on November 23, 2017 (GMT -0800)
Pangborn Memorial

Weather History for KEAT - August, 2014

Change the Weather History Date:

Sunday, August 24, 2014

  Actual Average Record
Temperature  
Mean Temperature 62 °F 65 °F  
Max Temperature 75 °F 81 °F 98 °F (1966)
Min Temperature 49 °F 49 °F 44 °F (1992)
Degree Days  
Heating Degree Days 3 3  
Month to date heating degree days 4 34  
Since 1 June heating degree days 207 273  
Since 1 July heating degree days 16 86  
Cooling Degree Days 0 2  
Month to date cooling degree days 139 91  
Year to date cooling degree days 383 220  
Since 1 June cooling degree days 383 215  
Growing Degree Days 20 (Base 50)    
Moisture  
Dew Point 48 °F    
Average Humidity 0    
Maximum Humidity 0    
Minimum Humidity 0    
Precipitation  
Precipitation 0.00 in 0.01 in 0.30 in (1968)
Month to date precipitation 0.37 0.34  
Year to date precipitation 11.76 10.29  
Snow  
Snow 0.00 in 0.00 in - ()
Month to date snowfall 0.0 0.0  
Since 1 June snowfall 0.0 0.0  
Since 1 July snowfall 0.0 0.0  
Snow Depth 0.00 in    
Sea Level Pressure  
Sea Level Pressure 29.95 in    
Wind  
Wind Speed 9 mph (WNW)    
Max Wind Speed 20 mph    
Max Gust Speed 0 mph    
Visibility 10 miles    
Events Thunderstorm    
T = Trace of Precipitation, MM = Missing Value Source: NWS Daily Summary

Daily Weather History Graph

Daily Weather History Graph

Search for Another Location

Airport or City:

Trip Planner

Search our weather history database for the weather conditions in past years. The results will help you decide how hot, cold, wet, or windy it might be!

Date:

Astronomy

Aug. 24, 2014 Rise Set
Actual Time 6:09 AM PDT 7:56 PM PDT
Civil Twilight 5:36 AM PDT 8:28 PM PDT
Nautical Twilight 4:56 AM PDT 9:08 PM PDT
Astronomical Twilight 4:12 AM PDT 9:51 PM PDT
Moon 5:24 AM PDT (8/24) 7:14 PM PDT (8/24)
Length of Visible Light 14h 52m
Length of Day
13h 46m
Waning Crescent, 1% of the Moon is Illuminated
Aug 24
Waning Crescent
Aug 25
New
Sep 2
First Quarter
Sep 8
Full
Sep 15
Last Quarter

Hourly Weather History & Observations

Time (PDT) Temp. Dew Point Humidity Pressure Visibility Wind Dir Wind Speed Gust Speed Precip Events Conditions
12:55 AM 70.0 °F 46.9 °F 44% 29.96 in 10.0 mi NW 8.1 mph - N/A   Clear
1:55 AM 69.1 °F 48.0 °F 47% 29.95 in 10.0 mi WNW 8.1 mph - N/A   Clear
2:55 AM 64.9 °F 48.9 °F 56% 29.95 in 10.0 mi West 8.1 mph - N/A   Clear
3:55 AM 66.0 °F 48.9 °F 54% 29.94 in 10.0 mi WNW 9.2 mph - N/A   Clear
4:55 AM 63.0 °F 50.0 °F 63% 29.94 in 10.0 mi West 9.2 mph - N/A   Clear
5:55 AM 62.1 °F 50.0 °F 65% 29.94 in 10.0 mi West 8.1 mph - N/A   Clear
6:55 AM 62.1 °F 50.0 °F 65% 29.94 in 10.0 mi NNW 3.5 mph - N/A   Clear
7:55 AM 64.0 °F 48.9 °F 58% 29.96 in 10.0 mi NNW 5.8 mph - N/A   Clear
8:55 AM 66.0 °F 50.0 °F 56% 29.96 in 10.0 mi West 5.8 mph - N/A   Overcast
9:55 AM 71.1 °F 48.9 °F 45% 29.97 in 10.0 mi West 9.2 mph - N/A   Scattered Clouds
10:55 AM 73.9 °F 48.9 °F 41% 29.96 in 10.0 mi WSW 10.4 mph - N/A   Mostly Cloudy
11:55 AM 75.0 °F 48.0 °F 38% 29.96 in 10.0 mi WSW 11.5 mph - N/A   Mostly Cloudy
12:14 PM 75.9 °F 48.0 °F 37% 29.98 in 10.0 mi WSW 8.1 mph - N/A Thunderstorm Mostly Cloudy
12:23 PM 75.9 °F 48.9 °F 38% 29.98 in 10.0 mi WSW 6.9 mph - N/A Thunderstorm Thunderstorm
12:55 PM 75.9 °F 48.9 °F 38% 29.95 in 10.0 mi West 9.2 mph - N/A Thunderstorm Mostly Cloudy
1:55 PM 78.1 °F 50.0 °F 37% 29.94 in 10.0 mi NNE 15.0 mph - N/A Thunderstorm Mostly Cloudy
2:14 PM 75.9 °F 50.0 °F 40% 29.98 in 10.0 mi NE 10.4 mph - N/A   Mostly Cloudy
2:55 PM 75.9 °F 50.0 °F 40% 29.96 in 10.0 mi NNE 19.6 mph 27.6 mph 0.00 in   Scattered Clouds
3:55 PM 75.9 °F 48.0 °F 37% 29.94 in 10.0 mi WSW 12.7 mph - N/A   Clear
4:55 PM 77.0 °F 45.0 °F 32% 29.93 in 10.0 mi WNW 12.7 mph - N/A   Clear
5:55 PM 75.9 °F 44.1 °F 32% 29.92 in 10.0 mi WNW 11.5 mph - N/A   Clear
6:55 PM 75.9 °F 45.0 °F 33% 29.92 in 10.0 mi West 10.4 mph - N/A   Clear
7:55 PM 73.0 °F 48.0 °F 41% 29.93 in 10.0 mi West 8.1 mph - N/A   Clear
8:55 PM 71.1 °F 48.0 °F 44% 29.95 in 10.0 mi WNW 8.1 mph - N/A   Clear
9:55 PM 68.0 °F 46.0 °F 45% 29.95 in 10.0 mi NW 5.8 mph - N/A   Clear
10:55 PM 66.0 °F 48.9 °F 54% 29.96 in 10.0 mi West 6.9 mph - N/A   Clear
11:55 PM 64.0 °F 50.0 °F 60% 29.97 in 10.0 mi WNW 6.9 mph - N/A   Mostly Cloudy